Theta_e
348 350 351 350 355 356 351 347 343 345 346 345 346 345 344 340 346 351 346 346 337 336 336 334 332 334 337 327 329 334 335 335 335 334 335 333 335 339 340 341 339 340 338 339 339 338 334 335 339
348 350 350 343 353 350 351 345 347 348 344 343 345 346 345 346 345 346 347 346 339 337 337 334 332 335 337 325 325 332 335 336 335 336 338 338 339 341 341 342 340 340 342 341 341 340 340 340 343
350 350 344 345 351 353 349 346 346 345 343 342 343 344 344 345 346 346 346 345 338 337 335 335 335 336 328 332 333 336 335 337 338 338 337 340 341 340 340 342 342 342 342 341 339 338 336 340 343
350 352 346 348 352 349 346 345 342 347 345 345 345 345 345 346 346 347 346 346 344 336 332 335 335 325 327 334 335 336 337 336 337 338 337 339 339 339 341 340 340 340 338 340 342 334 335 338 345
348 349 351 353 352 348 345 345 342 347 346 343 345 345 347 346 345 345 338 341 342 336 333 339 326 324 333 336 337 335 335 337 337 339 340 341 341 340 339 339 339 339 340 337 332 330 330 341 343
350 346 352 354 351 347 347 346 345 346 345 345 345 344 347 347 346 344 342 343 336 334 334 335 331 334 336 336 336 336 333 332 336 335 338 341 342 341 334 337 340 334 335 333 330 326 333 344 343
346 349 353 349 350 350 348 341 343 345 345 345 344 343 344 346 346 347 346 345 341 337 334 333 334 337 337 337 336 338 334 331 333 331 332 339 338 340 333 330 328 326 324 324 324 324 328 338 345
343 346 350 348 350 354 352 344 345 345 346 344 341 343 341 346 345 344 342 346 343 337 329 331 336 337 337 338 334 333 333 333 331 328 327 332 335 335 335 332 329 326 323 323 323 323 323 330 335
345 350 348 348 345 351 348 349 347 344 345 344 343 343 340 344 344 344 344 345 345 343 340 332 336 337 336 338 337 336 334 334 328 339 335 337 336 335 337 331 329 326 335 337 325 328 336 337 338
343 347 346 342 345 349 346 346 349 347 345 343 344 343 342 344 343 344 344 343 343 344 344 342 340 338 337 336 332 333 343 343 344 347 347 344 339 337 337 331 330 340 344 346 347 346 344 339 339
347 347 345 343 343 342 344 345 347 347 347 344 344 343 343 343 342 342 344 344 343 343 337 341 340 342 337 334 339 336 343 344 345 346 344 342 335 336 334 340 333 335 342 346 346 343 346 347 347
353 350 348 349 345 344 344 345 345 345 345 345 343 342 343 343 343 343 343 345 343 341 339 338 342 343 344 338 340 338 337 343 345 341 341 340 338 339 343 341 343 342 345 346 344 342 347 346 345
353 351 348 346 347 346 343 347 349 346 344 344 343 343 343 343 343 343 343 345 345 343 342 338 344 344 344 345 343 345 342 338 341 342 345 345 346 345 346 341 344 344 344 345 346 346 343 344 342
348 341 348 346 349 346 347 349 348 346 346 344 342 343 344 344 340 344 345 345 344 343 345 342 342 342 345 345 342 345 346 342 339 345 345 346 345 344 343 342 343 346 345 345 345 346 345 343 340
341 346 347 351 350 349 346 346 347 343 345 344 342 343 343 344 344 344 344 344 345 346 344 340 339 341 344 342 343 344 344 342 338 342 343 343 341 339 343 342 346 347 346 343 345 346 344 342 341
349 351 355 347 341 348 346 350 345 342 344 346 343 343 345 344 343 345 344 344 346 345 344 341 338 338 339 338 342 341 342 343 341 341 344 344 345 345 345 342 344 342 339 341 344 345 345 340 340
343 348 353 349 343 342 349 349 345 339 343 346 345 344 342 345 344 346 344 344 344 344 343 343 339 336 337 342 340 341 344 344 343 337 336 337 342 343 344 345 345 341 345 348 348 346 345 340 342
345 346 347 348 348 347 350 351 345 340 341 343 345 343 342 344 345 344 345 346 345 344 345 345 344 338 342 342 343 343 344 343 342 343 345 342 340 343 345 346 346 344 344 345 345 348 345 340 342
342 343 348 345 344 353 352 352 346 342 343 342 346 345 344 343 341 345 346 345 344 344 343 343 345 342 343 342 344 343 343 342 343 345 345 344 342 343 342 341 342 344 344 344 346 345 345 344 345
340 342 351 348 349 350 352 352 348 343 343 341 345 345 345 344 345 346 345 346 345 344 342 343 344 343 343 341 344 342 342 343 342 345 347 343 340 342 347 347 338 339 342 345 344 344 345 347 344
337 339 347 345 343 343 349 352 354 345 344 342 343 344 346 345 345 346 345 346 345 344 342 342 344 344 343 341 342 341 342 342 343 345 345 342 340 342 350 346 344 335 340 345 347 346 346 348 346
335 338 343 345 344 342 341 349 355 350 347 343 342 343 344 346 345 345 346 345 345 344 341 342 342 343 342 342 343 343 343 342 344 344 342 341 338 339 344 347 343 340 341 346 346 347 346 344 347
332 334 335 338 338 337 338 346 351 350 350 347 343 342 341 344 344 344 344 346 346 344 343 344 343 341 342 340 344 343 343 344 343 343 344 345 346 340 345 346 341 340 337 344 343 346 346 341 347
330 334 336 337 334 339 341 344 355 354 353 350 345 344 341 341 345 343 343 342 347 347 344 344 343 339 341 341 343 343 343 346 345 346 344 346 344 342 346 349 344 338 336 335 340 343 347 342 335
327 327 329 338 340 342 339 342 350 351 349 349 347 346 342 340 343 345 342 342 346 348 345 346 344 340 344 343 345 344 345 347 348 343 346 344 342 345 344 346 344 338 338 338 340 341 344 346 342
327 326 325 340 340 341 339 351 349 341 341 345 346 348 344 341 342 345 345 343 346 348 347 346 346 343 342 343 344 345 344 345 347 345 344 343 342 348 346 345 343 342 336 339 340 338 338 341 343
324 327 325 325 330 338 343 348 342 338 339 341 341 349 348 344 341 345 345 344 345 347 347 345 345 345 340 341 341 346 346 345 346 346 348 344 346 347 347 349 346 347 344 344 348 341 338 346 349
323 323 326 334 339 341 348 347 344 340 339 340 339 338 342 343 341 345 345 345 344 347 345 345 345 345 342 338 339 345 345 341 345 346 346 344 346 347 347 347 347 347 346 348 347 347 344 347 349
331 325 335 336 339 343 348 346 337 339 338 339 341 341 343 342 341 344 344 345 347 348 348 346 346 347 346 344 339 340 342 343 342 348 343 345 348 348 350 349 349 347 346 347 346 346 347 348 349
332 332 334 334 342 339 342 344 339 338 338 338 339 342 346 348 347 347 345 346 348 348 347 349 347 348 348 345 339 343 342 343 343 343 342 346 348 349 347 347 346 347 343 345 347 347 347 347 346
Wind_Speed
4 4 12 6 4 1 1 8 10 13 14 27 21 11 8 10 6 10 27 23 23 21 20 20 20 19 21 20 21 18 20 20 19 19 18 19 18 18 17 17 18 18 18 18 18 19 21 22 23
2 12 3 5 2 3 3 1 11 15 12 28 34 31 23 23 31 32 32 22 23 23 21 21 22 20 20 23 19 19 20 19 19 19 18 19 18 19 19 19 20 18 17 17 18 20 22 23 23
11 6 5 3 2 1 4 9 7 19 20 16 13 24 16 28 29 27 31 24 22 23 22 21 22 21 19 24 22 21 20 19 19 18 19 18 18 20 19 20 21 21 19 18 18 21 24 23 21
8 4 7 2 5 8 6 13 17 24 16 20 18 13 32 39 35 39 34 28 21 22 22 20 20 20 24 22 22 21 20 20 19 18 19 19 18 18 19 19 20 19 18 18 17 20 22 23 21
3 3 4 4 6 4 3 20 19 14 9 15 35 18 30 31 36 31 20 25 20 23 22 21 21 23 23 21 20 20 20 19 19 19 19 19 18 18 19 18 18 18 18 17 18 20 23 23 22
7 4 4 2 9 9 13 23 18 15 24 33 31 25 21 38 35 30 27 26 22 20 23 23 23 22 21 20 19 19 19 18 18 19 19 19 18 18 18 18 18 17 17 16 17 19 21 22 21
7 5 2 2 8 10 2 10 14 18 15 20 35 18 31 29 29 32 32 25 20 23 23 23 23 22 21 19 19 18 18 19 18 17 18 18 17 17 18 19 18 17 19 17 18 18 19 20 19
13 3 3 3 4 7 17 9 17 28 6 31 30 14 15 37 32 31 25 30 20 22 21 23 21 21 21 20 19 18 18 19 20 20 19 17 18 18 19 18 19 18 20 20 20 20 21 19 19
23 5 3 3 5 2 22 10 6 24 26 22 10 32 28 27 28 31 31 30 25 22 21 20 18 18 19 18 19 20 19 20 25 24 23 18 14 16 17 17 19 22 23 23 22 24 24 23 19
4 5 13 13 5 8 8 8 9 4 26 23 29 28 26 35 27 33 35 34 21 25 19 20 14 14 17 18 19 22 23 19 19 16 15 15 15 16 16 17 20 21 19 17 16 13 14 18 18
9 5 9 6 17 13 9 16 15 7 12 34 31 27 27 26 24 25 27 25 24 24 11 14 17 17 15 18 21 23 22 20 16 16 13 9 10 15 16 19 18 14 11 10 13 10 9 8 8
7 11 13 15 14 13 9 9 10 8 13 20 34 30 26 26 16 19 18 21 22 19 25 12 20 21 14 15 14 16 15 20 16 14 16 13 12 12 12 9 9 12 9 10 8 8 7 6 3
7 20 7 19 16 23 26 22 3 9 19 21 23 26 25 23 21 15 18 24 22 16 17 19 21 18 18 14 12 17 18 13 17 18 14 12 8 6 10 9 8 6 6 8 4 8 9 8 8
8 28 10 16 19 17 12 2 4 3 7 18 25 25 25 21 18 23 32 25 21 20 22 20 26 21 23 20 17 20 17 13 18 14 12 15 12 12 10 7 6 4 1 3 5 8 10 8 10
14 9 7 9 17 6 11 4 2 4 10 16 25 25 18 20 15 26 28 24 24 24 22 12 18 28 25 18 17 15 19 17 14 10 15 13 15 15 12 10 5 6 5 2 8 8 8 7 12
5 3 8 5 21 5 9 5 7 4 6 17 16 25 23 23 18 18 21 23 23 20 15 18 22 24 18 23 18 22 19 18 10 11 11 13 16 11 6 7 8 7 7 7 6 6 7 4 6
4 3 8 4 10 8 10 2 13 9 3 13 12 24 20 14 22 26 18 15 20 14 18 22 22 18 18 15 24 16 12 15 11 6 11 10 12 10 5 5 4 7 8 6 5 3 7 8 5
2 5 8 4 6 13 11 9 6 17 13 4 16 14 13 19 17 18 21 22 20 19 22 23 20 20 18 19 17 14 14 14 9 7 9 7 9 7 6 7 2 5 11 7 6 3 5 8 7
5 5 8 6 6 8 14 9 12 18 15 12 8 21 21 18 16 16 22 24 21 26 24 19 21 19 20 22 19 18 19 15 13 11 9 6 7 6 2 6 3 3 7 10 8 9 6 5 1
10 9 11 8 11 17 10 10 10 17 20 21 18 18 22 16 9 24 24 25 26 28 23 23 20 20 19 20 18 18 20 16 12 12 8 4 12 12 6 5 5 4 9 12 10 7 8 3 2
4 6 6 7 12 9 7 5 10 10 11 15 21 20 17 17 22 20 25 30 28 24 23 21 24 24 21 23 21 18 19 16 15 12 9 7 9 12 8 3 5 9 10 10 10 8 7 4 4
5 11 9 5 5 5 9 4 8 12 12 15 22 25 26 16 13 21 25 25 30 26 21 18 22 25 24 25 24 21 20 20 18 14 9 4 7 12 9 5 5 3 8 5 4 9 2 9 4
1 6 2 6 4 4 6 2 5 12 13 17 25 25 25 27 18 27 24 22 31 26 22 20 16 23 26 28 23 19 18 19 17 15 12 9 4 7 10 4 7 4 8 12 3 3 3 10 5
11 3 4 4 1 2 4 1 2 9 15 17 22 27 31 28 25 21 29 22 27 28 26 22 18 25 30 30 23 22 21 17 16 13 14 15 8 10 9 9 8 8 8 9 6 4 1 4 14
8 3 3 2 3 4 6 5 6 13 10 12 22 27 33 34 30 29 21 25 25 34 30 24 22 28 29 30 26 27 24 20 12 15 13 12 12 8 12 14 10 9 9 9 9 10 9 9 10
7 6 5 1 4 6 7 5 3 6 23 13 19 30 31 31 32 37 31 29 27 36 34 28 26 20 27 29 30 26 26 23 14 19 16 11 11 12 14 15 10 5 8 10 12 12 13 11 11
8 4 9 4 6 4 1 5 4 13 15 24 23 19 32 35 36 35 42 30 35 37 39 35 28 23 21 28 30 28 26 24 22 19 17 16 13 12 17 18 15 8 9 8 6 9 13 13 8
6 6 6 5 4 3 3 2 5 10 17 16 23 31 21 33 33 37 40 32 39 39 42 37 30 25 18 24 29 30 27 25 23 20 20 18 14 11 9 15 13 11 10 12 11 13 10 12 10
6 6 5 6 4 2 3 5 4 5 11 16 26 37 37 28 34 41 42 39 40 34 36 38 33 29 23 19 27 28 28 25 26 24 23 21 16 14 13 14 12 14 15 16 17 15 13 15 12
4 4 5 4 2 2 4 5 4 4 10 17 31 40 4 4 24 33 33 39 44 33 36 34 35 33 25 16 20 25 23 23 28 25 24 21 24 20 19 15 16 22 18 16 17 17 15 14 17
Wind_Direction
135 56 23 7 320 150 4 156 76 101 67 73 105 128 130 108 113 119 141 140 151 144 139 133 128 120 116 111 108 111 115 119 118 117 117 114 112 108 109 111 115 116 115 116 112 112 111 113 115
96 52 92 106 354 345 352 94 49 91 116 81 91 102 98 82 104 126 137 149 144 141 141 138 130 121 120 111 115 118 118 119 118 116 115 115 112 111 106 109 110 113 114 115 117 113 114 119 115
86 56 93 94 259 278 162 107 86 80 72 92 95 104 106 111 110 125 142 134 133 135 136 134 130 129 131 125 129 122 122 119 113 114 117 115 112 111 108 109 110 112 111 111 112 114 121 125 116
59 134 76 115 239 236 157 128 112 98 71 91 89 83 113 131 129 134 134 142 138 133 133 133 133 135 134 129 127 125 120 119 116 114 115 115 116 115 112 115 115 112 112 114 116 119 126 128 120
229 47 72 342 295 287 175 94 89 95 101 111 107 114 113 128 135 140 148 149 145 136 132 135 131 129 131 130 127 125 123 119 115 112 113 116 113 115 116 114 116 115 117 117 117 121 131 129 121
32 36 66 340 355 246 52 99 83 98 146 110 111 114 122 134 131 129 130 140 135 136 135 137 135 132 133 135 131 127 124 122 119 122 119 118 113 116 113 115 115 112 115 112 116 119 133 132 125
92 352 32 30 338 300 22 46 95 117 99 117 124 111 128 131 127 129 126 135 135 142 141 135 136 134 135 133 131 126 123 121 119 120 123 116 113 116 114 110 108 108 106 107 108 115 127 132 119
79 286 268 359 318 321 6 319 114 122 111 136 122 138 129 140 141 147 138 144 130 134 132 136 136 138 136 136 129 124 121 120 116 113 115 117 118 117 113 109 104 104 103 102 105 110 114 125 117
147 165 179 204 247 274 7 357 60 127 134 143 134 141 138 145 132 128 125 142 144 134 123 129 132 137 139 136 129 126 121 122 118 111 112 108 110 119 112 110 106 106 102 92 102 108 110 110 109
175 172 196 176 210 80 75 317 327 124 160 115 127 138 140 140 132 138 142 146 143 142 127 126 134 140 143 137 130 127 123 116 108 105 116 112 97 117 109 108 108 112 100 94 93 98 97 103 104
180 240 168 225 126 77 23 348 341 348 97 139 138 144 147 146 148 150 149 140 136 152 155 153 153 143 141 141 132 137 135 127 118 118 108 112 100 113 112 105 108 113 82 75 78 74 80 73 119
161 204 147 140 131 110 171 171 267 112 145 161 143 148 151 155 139 153 163 147 141 147 142 156 155 159 151 145 141 129 141 136 133 135 132 129 131 127 115 112 112 104 81 96 81 80 67 74 88
335 80 81 149 133 145 177 219 74 87 133 140 154 149 154 162 170 150 182 153 147 153 156 152 156 163 160 166 140 138 139 134 141 147 144 160 150 158 139 140 123 95 85 82 76 88 107 100 109
209 109 235 160 129 158 151 241 301 95 162 180 149 149 143 141 161 134 156 155 153 150 140 154 172 172 175 168 171 166 169 138 155 138 138 142 142 148 159 154 154 119 168 159 133 109 121 117 136
163 123 164 134 123 128 139 338 279 93 101 128 160 154 148 156 173 162 151 151 156 161 161 190 193 171 174 173 173 173 148 151 162 144 149 151 160 154 146 130 147 132 118 190 139 128 148 127 164
110 73 149 55 38 170 214 229 272 133 96 58 136 142 133 155 178 169 167 162 165 168 180 171 182 171 183 179 154 132 149 156 165 149 160 162 161 162 164 177 161 162 167 170 153 131 131 94 108
214 139 64 137 162 220 205 260 224 218 246 98 115 139 144 106 151 164 171 173 176 161 154 164 173 180 166 146 158 142 147 164 167 157 185 156 174 161 163 165 159 176 186 248 223 162 173 181 134
152 120 100 220 170 221 206 247 180 206 214 168 141 163 184 155 174 172 160 173 173 157 163 172 175 173 167 154 139 143 161 157 181 174 158 142 152 165 197 237 264 239 185 155 146 93 157 192 209
202 167 149 193 211 181 202 210 188 203 204 183 188 170 171 202 182 178 172 186 180 171 175 174 171 173 168 171 165 171 176 167 176 203 206 169 152 165 164 181 230 252 199 190 149 156 168 188 175
188 189 103 62 322 209 199 212 170 187 204 189 187 189 192 193 209 194 168 183 185 178 185 175 177 174 180 182 170 173 177 166 185 188 193 226 182 170 170 179 195 223 216 153 160 172 187 211 220
47 261 141 161 218 231 178 213 162 199 194 205 202 200 176 189 193 173 174 176 184 187 187 191 186 185 184 174 175 170 172 180 188 205 223 260 215 174 181 178 144 179 170 172 154 174 177 249 230
192 152 124 173 201 227 173 251 186 171 194 201 219 196 200 191 195 185 186 186 194 194 196 191 196 197 189 181 184 188 194 191 200 206 221 198 171 186 190 267 255 192 164 141 134 144 152 209 238
217 89 173 185 237 259 256 209 225 148 210 209 208 197 201 204 207 183 206 186 205 199 197 192 184 198 188 184 182 191 188 200 205 212 201 205 199 196 198 252 213 203 191 176 122 76 131 211 178
285 144 218 159 148 352 339 79 161 179 216 209 206 203 192 196 202 221 197 200 198 203 194 188 182 177 173 179 185 190 194 198 204 198 205 206 201 187 196 218 244 208 191 206 208 225 86 274 226
262 359 332 341 13 226 357 11 233 210 225 212 204 200 194 190 195 212 203 210 201 204 195 189 184 184 187 189 186 192 202 196 199 202 194 209 225 213 210 211 233 219 214 227 240 235 225 214 237
231 198 178 177 151 278 359 5 276 36 21 302 228 201 196 195 195 207 204 207 197 199 201 197 191 191 202 199 195 192 197 200 208 200 200 205 208 219 216 210 222 234 235 219 227 243 238 233 244
284 254 223 233 212 137 143 330 333 8 5 6 15 197 193 198 200 209 201 211 200 197 203 202 201 195 200 205 200 198 199 205 198 184 188 198 214 233 247 218 221 241 234 223 240 248 241 233 239
208 260 355 6 17 337 314 152 256 349 330 348 351 328 295 194 196 203 203 202 204 212 204 204 206 199 194 204 208 202 204 208 197 195 206 213 218 209 191 200 217 214 210 215 229 254 241 231 233
356 338 36 99 43 124 23 299 223 360 341 353 333 324 291 239 211 196 195 197 195 202 200 207 206 205 196 198 208 207 209 212 208 207 207 204 204 196 202 211 216 222 221 230 237 242 251 235 246
323 72 129 106 216 142 170 254 138 143 28 7 332 313 135 252 232 193 202 197 198 201 193 207 213 207 202 203 205 201 208 211 212 220 217 211 208 218 226 222 226 229 235 239 234 242 247 244 250